Location: Unspecified
(44.0704°N, 88.6889°W)
Time: 17:21:59
(UTC+02:00)

Transit 2A - Pass Details

Date: 19 June 2019
Orbit: 597 x 962 km, 66.7° (Epoch: 21 August)

Event Time Altitude Azimuth Distance (km) Brightness Sun altitude
Rises 07:23:43 0° 164° (SSE) 3,592 - -22.1°
Reaches altitude 10° 07:26:57 10° 148° (SSE) 2,677 - -22.2°
Exits shadow 07:30:29 19° 114° (ESE) 2,103 8.0 -22.3°
Maximum altitude 07:31:16 20° 104° (ESE) 2,081 8.0 -22.3°
Drops below altitude 10° 07:35:36 10° 61° (ENE) 2,689 9.1 -22.3°
Sets 07:38:50 0° 45° (NE) 3,614 10.1 -22.4°
